Wharton, TX

9:49 PM CDT on March 24, 2017 (GMT -0500)
Wharton Regional

Weather History for KARM - November, 2013

Change the Weather History Date:

Wednesday, November 20, 2013

  Actual Average (KPSX) Record (KPSX)
Temperature  
Mean Temperature 64 °F -  
Max Temperature 74 °F 69 °F 85 °F (1979)
Min Temperature 55 °F 50 °F 31 °F (1969)
Growing Degree Days 14 (Base 50)    
Moisture  
Dew Point 59 °F    
Average Humidity 79    
Maximum Humidity 97    
Minimum Humidity 64    
Precipitation  
Precipitation 0.03 in - - ()
Sea Level Pressure  
Sea Level Pressure 29.98 in    
Wind  
Wind Speed 8 mph (East)    
Max Wind Speed 16 mph    
Max Gust Speed 22 mph    
Visibility 9 miles    
Events Rain    
Averages and records for this station are not official NWS values.
T = Trace of Precipitation, MM = Missing Value Source: NWS Daily Summary

Daily Weather History Graph

Daily Weather History Graph

Search for Another Location

Airport or City:

Trip Planner

Search our weather history database for the weather conditions in past years. The results will help you decide how hot, cold, wet, or windy it might be!

Date:

Astronomy

Nov. 20, 2013 Rise Set
Actual Time 6:52 AM CST 5:27 PM CST
Civil Twilight 6:27 AM CST 5:53 PM CST
Nautical Twilight 5:58 AM CST 6:22 PM CST
Astronomical Twilight 5:29 AM CST 6:50 PM CST
Moon 8:11 PM CST (11/20) 9:18 AM CST (11/20)
Length of Visible Light 11h 25m
Length of Day
10h 35m
Waning Gibbous, 91% of the Moon is Illuminated
Nov 20
Waning Gibbous
Nov 25
Last Quarter
Dec 2
New
Dec 9
First Quarter
Dec 17
Full

Hourly Weather History & Observations

Time (CST) Temp. Dew Point Humidity Pressure Visibility Wind Dir Wind Speed Gust Speed Precip Events Conditions
12:15 AM 58.5 °F 49.5 °F 72% 30.03 in 10.0 mi ENE 5.8 mph - N/A   Overcast
12:35 AM 58.6 °F 49.3 °F 71% 30.03 in 10.0 mi ENE 5.8 mph - N/A   Overcast
12:55 AM 59.0 °F 49.1 °F 70% 30.02 in 10.0 mi ENE 5.8 mph - N/A   Overcast
1:15 AM 59.0 °F 49.1 °F 70% 30.02 in 10.0 mi East 6.9 mph - N/A   Overcast
1:35 AM 59.0 °F 49.1 °F 70% 30.03 in 10.0 mi East 8.1 mph - N/A   Overcast
1:55 AM 58.8 °F 49.1 °F 70% 30.02 in 10.0 mi East 5.8 mph - N/A   Overcast
2:15 AM 59.0 °F 49.1 °F 70% 30.02 in 10.0 mi ENE 5.8 mph - N/A   Overcast
2:35 AM 59.0 °F 49.5 °F 71% 30.02 in 10.0 mi East 5.8 mph - N/A   Overcast
2:55 AM 59.0 °F 49.6 °F 71% 30.02 in 10.0 mi ENE 4.6 mph - N/A   Overcast
3:15 AM 59.0 °F 49.6 °F 71% 30.02 in 10.0 mi ENE 5.8 mph - N/A   Overcast
3:35 AM 59.0 °F 49.6 °F 71% 30.02 in 10.0 mi ENE 5.8 mph - N/A   Overcast
3:55 AM 58.6 °F 49.6 °F 72% 30.01 in 10.0 mi ENE 3.5 mph - N/A   Overcast
4:15 AM 59.0 °F 49.5 °F 71% 30.02 in 10.0 mi ENE 3.5 mph - N/A   Overcast
4:35 AM 58.6 °F 49.5 °F 72% 30.01 in 10.0 mi NE 4.6 mph - N/A   Overcast
4:55 AM 58.6 °F 49.5 °F 72% 30.01 in 10.0 mi NE 4.6 mph - N/A   Overcast
5:15 AM 58.1 °F 49.3 °F 72% 30.00 in 10.0 mi East 6.9 mph - N/A   Mostly Cloudy
5:35 AM 57.0 °F 49.3 °F 75% 30.00 in 10.0 mi East 5.8 mph - N/A   Scattered Clouds
5:55 AM 56.3 °F 49.3 °F 77% 30.00 in 10.0 mi East 5.8 mph - N/A   Scattered Clouds
6:15 AM 55.8 °F 49.5 °F 79% 30.01 in 10.0 mi ENE 5.8 mph - N/A   Clear
6:35 AM 55.6 °F 49.8 °F 81% 30.01 in 10.0 mi East 4.6 mph - N/A   Scattered Clouds
6:55 AM 55.4 °F 49.8 °F 81% 30.01 in 10.0 mi East 5.8 mph - N/A   Scattered Clouds
7:15 AM 55.2 °F 50.2 °F 83% 30.01 in 10.0 mi ENE 4.6 mph - N/A   Clear
7:35 AM 57.2 °F 50.9 °F 79% 30.02 in 10.0 mi ENE 3.5 mph - N/A   Mostly Cloudy
7:55 AM 58.1 °F 51.4 °F 78% 30.02 in 10.0 mi East 3.5 mph - N/A   Overcast
8:15 AM 60.1 °F 52.2 °F 75% 30.01 in 10.0 mi ENE 8.1 mph - N/A   Mostly Cloudy
8:35 AM 61.0 °F 53.4 °F 76% 30.02 in 10.0 mi East 6.9 mph - N/A   Mostly Cloudy
8:55 AM 63.5 °F 54.7 °F 73% 30.02 in 10.0 mi East 9.2 mph - N/A   Overcast
9:15 AM 66.9 °F 56.5 °F 69% 30.01 in 10.0 mi East 12.7 mph 16.1 mph N/A   Overcast
9:35 AM 68.5 °F 57.0 °F 67% 30.02 in 10.0 mi East 13.8 mph 17.3 mph N/A   Scattered Clouds
9:55 AM 69.8 °F 57.7 °F 65% 30.02 in 10.0 mi East 12.7 mph 18.4 mph N/A   Scattered Clouds
10:15 AM 70.2 °F 59.0 °F 68% 30.01 in 10.0 mi East 13.8 mph - N/A   Mostly Cloudy
10:35 AM 72.9 °F 60.1 °F 64% 30.01 in 10.0 mi East 13.8 mph 21.9 mph N/A   Overcast
10:55 AM 72.5 °F 60.3 °F 65% 30.01 in 10.0 mi East 12.7 mph 19.6 mph N/A   Mostly Cloudy
11:15 AM 71.1 °F 60.3 °F 69% 30.00 in 10.0 mi ESE 12.7 mph - N/A   Overcast
11:35 AM 73.0 °F 61.3 °F 67% 29.99 in 10.0 mi East 12.7 mph 19.6 mph N/A   Mostly Cloudy
11:55 AM 73.6 °F 61.7 °F 66% 29.98 in 10.0 mi ESE 13.8 mph 18.4 mph N/A   Mostly Cloudy
12:15 PM 73.9 °F 62.6 °F 68% 29.97 in 10.0 mi ESE 16.1 mph 19.6 mph N/A   Overcast
12:35 PM 74.8 °F 63.0 °F 66% 29.96 in 10.0 mi ESE 13.8 mph 18.4 mph N/A   Overcast
12:55 PM 73.8 °F 63.1 °F 69% 29.96 in 10.0 mi ESE 10.4 mph - N/A   Overcast
1:15 PM 73.0 °F 63.1 °F 71% 29.96 in 10.0 mi ESE 15.0 mph - N/A   Overcast
1:35 PM 72.5 °F 63.5 °F 73% 29.95 in 10.0 mi East 12.7 mph - N/A   Overcast
1:55 PM 73.6 °F 64.2 °F 72% 29.93 in 10.0 mi ESE 12.7 mph 18.4 mph N/A   Overcast
2:15 PM 73.4 °F 64.4 °F 73% 29.93 in 10.0 mi East 8.1 mph 16.1 mph N/A   Overcast
2:35 PM 73.9 °F 64.6 °F 72% 29.93 in 10.0 mi East 11.5 mph - N/A   Overcast
2:55 PM 72.5 °F 64.4 °F 76% 29.92 in 10.0 mi East 10.4 mph - N/A   Overcast
3:15 PM 72.9 °F 64.9 °F 76% 29.92 in 10.0 mi East 13.8 mph - N/A   Overcast
3:35 PM 72.5 °F 65.1 °F 78% 29.92 in 10.0 mi East 11.5 mph - N/A   Overcast
3:55 PM 72.5 °F 65.3 °F 78% 29.92 in 10.0 mi ESE 11.5 mph 17.3 mph N/A   Overcast
4:15 PM 72.1 °F 65.3 °F 79% 29.92 in 10.0 mi East 12.7 mph 17.3 mph N/A   Overcast
4:35 PM 71.8 °F 65.7 °F 81% 29.92 in 7.0 mi East 12.7 mph 19.6 mph N/A   Overcast
4:55 PM 70.7 °F 66.2 °F 86% 29.93 in 10.0 mi East 8.1 mph - N/A   Overcast
5:15 PM 70.2 °F 66.2 °F 87% 29.93 in 10.0 mi East 9.2 mph - N/A   Overcast
5:35 PM 70.2 °F 66.2 °F 87% 29.93 in 10.0 mi East 9.2 mph - N/A   Overcast
5:55 PM 70.2 °F 66.2 °F 87% 29.93 in 10.0 mi East 6.9 mph - N/A   Overcast
6:15 PM 70.2 °F 66.2 °F 87% 29.93 in 10.0 mi East 10.4 mph - N/A   Overcast
6:35 PM 70.2 °F 66.4 °F 88% 29.94 in 10.0 mi East 10.4 mph - N/A   Overcast
6:55 PM 70.2 °F 66.2 °F 87% 29.94 in 10.0 mi East 10.4 mph - N/A   Overcast
7:15 PM 70.0 °F 66.6 °F 89% 29.95 in 10.0 mi East 10.4 mph 16.1 mph N/A   Overcast
7:35 PM 69.1 °F 66.7 °F 92% 29.95 in 5.0 mi East 10.4 mph - 0.02 in Rain Rain
7:55 PM 68.4 °F 67.1 °F 96% 29.96 in 7.0 mi East 8.1 mph - 0.02 in   Overcast
8:15 PM 68.4 °F 67.1 °F 96% 29.96 in 7.0 mi East 9.2 mph - N/A   Overcast
8:35 PM 68.5 °F 67.3 °F 96% 29.96 in 7.0 mi East 8.1 mph - N/A   Overcast
8:55 PM 68.9 °F 67.5 °F 95% 29.97 in 7.0 mi East 9.2 mph - N/A   Overcast
9:15 PM 68.9 °F 67.6 °F 96% 29.97 in 7.0 mi East 9.2 mph - N/A   Overcast
9:35 PM 69.1 °F 68.0 °F 96% 29.97 in 7.0 mi East 9.2 mph - N/A   Overcast
9:55 PM 69.3 °F 68.0 °F 96% 29.97 in 7.0 mi East 10.4 mph - N/A Rain Light Rain
10:15 PM 69.8 °F 68.4 °F 95% 29.97 in 7.0 mi East 9.2 mph - 0.01 in   Overcast
10:35 PM 69.6 °F 68.4 °F 96% 29.97 in 7.0 mi East 8.1 mph - 0.01 in   Overcast
10:55 PM 69.8 °F 68.5 °F 96% 29.97 in 7.0 mi ESE 6.9 mph - 0.01 in   Overcast
11:15 PM 69.8 °F 68.5 °F 96% 29.97 in 7.0 mi ESE 6.9 mph - N/A   Overcast
11:35 PM 69.8 °F 68.9 °F 97% 29.96 in 7.0 mi East 4.6 mph - N/A   Overcast
11:55 PM 70.2 °F 69.1 °F 96% 29.96 in 7.0 mi ESE 5.8 mph - N/A   Overcast